Time,TemperatureF,DewpointF,PressureIn,WindDirection,WindDirectionDegrees,WindSpeedMPH,WindSpeedGustMPH,Humidity,HourlyPrecipIn,Conditions,Clouds,dailyrainin,SoftwareType,DateUTC
2013-09-09 00:10:00,33.6,30.4,30.02,NNW,337,0.0,-999.0,88,-99.99,,,0.00,Acu-Link.com,2013-09-09 04:10:00,
2013-09-09 00:25:00,33.3,30.1,30.02,SSW,202,0.0,-999.0,88,-99.99,,,0.00,Acu-Link.com,2013-09-09 04:25:00,
2013-09-09 00:40:00,33.1,30.5,30.02,North,0,0.0,-999.0,90,-99.99,,,0.00,Acu-Link.com,2013-09-09 04:40:00,
2013-09-09 00:56:00,33.4,31.1,30.03,North,0,2.2,-999.0,91,-99.99,,,0.00,Acu-Link.com,2013-09-09 04:56:00,
2013-09-09 01:11:00,34.2,33.2,30.04,NE,45,1.7,-999.0,96,-99.99,,,0.00,Acu-Link.com,2013-09-09 05:11:00,
2013-09-09 01:26:00,34.2,33.2,30.04,West,270,0.0,-999.0,96,-99.99,,,0.00,Acu-Link.com,2013-09-09 05:26:00,
2013-09-09 01:41:00,33.4,32.4,30.05,North,0,0.0,-999.0,96,-99.99,,,0.00,Acu-Link.com,2013-09-09 05:41:00,
2013-09-09 01:56:00,33.8,33.0,30.06,West,270,0.0,-999.0,97,-99.99,,,0.00,Acu-Link.com,2013-09-09 05:56:00,
2013-09-09 02:12:00,33.4,32.6,30.06,NNE,22,1.1,-999.0,97,-99.99,,,0.00,Acu-Link.com,2013-09-09 06:12:00,
2013-09-09 02:27:00,33.3,32.5,30.06,North,0,0.0,-999.0,97,-99.99,,,0.00,Acu-Link.com,2013-09-09 06:27:00,
2013-09-09 02:42:00,33.1,32.3,30.07,NNE,22,0.0,-999.0,97,-99.99,,,0.00,Acu-Link.com,2013-09-09 06:42:00,
2013-09-09 02:57:00,33.3,32.5,30.07,West,270,0.0,-999.0,97,-99.99,,,0.00,Acu-Link.com,2013-09-09 06:57:00,
2013-09-09 03:12:00,33.1,32.3,30.08,NNW,337,0.0,-999.0,97,-99.99,,,0.00,Acu-Link.com,2013-09-09 07:12:00,
2013-09-09 03:28:00,32.7,31.9,30.08,NW,315,0.0,-999.0,97,-99.99,,,0.00,Acu-Link.com,2013-09-09 07:28:00,
2013-09-09 03:43:00,32.4,31.6,30.08,NNE,22,0.0,-999.0,97,-99.99,,,0.00,Acu-Link.com,2013-09-09 07:43:00,
2013-09-09 03:58:00,32.2,31.4,30.09,WNW,292,1.1,-999.0,97,-99.99,,,0.00,Acu-Link.com,2013-09-09 07:58:00,
2013-09-09 04:14:00,31.8,31.0,30.08,NNW,337,0.0,-999.0,97,-99.99,,,0.00,Acu-Link.com,2013-09-09 08:14:00,
2013-09-09 04:30:00,32.4,31.6,30.09,NNW,337,0.0,-999.0,97,-99.99,,,0.00,Acu-Link.com,2013-09-09 08:30:00,
2013-09-09 04:45:00,33.4,33.1,30.09,North,0,0.0,-999.0,99,-99.99,,,0.00,Acu-Link.com,2013-09-09 08:45:00,
2013-09-09 05:00:00,33.8,33.5,30.08,North,0,0.0,-999.0,99,-99.99,,,0.00,Acu-Link.com,2013-09-09 09:00:00,
2013-09-09 05:15:00,33.3,32.8,30.09,NW,315,0.0,-999.0,98,-99.99,,,0.00,Acu-Link.com,2013-09-09 09:15:00,
2013-09-09 05:30:00,32.5,32.0,30.10,NW,315,2.2,-999.0,98,-99.99,,,0.00,Acu-Link.com,2013-09-09 09:30:00,
2013-09-09 05:45:00,33.3,32.8,30.09,North,0,1.1,-999.0,98,-99.99,,,0.00,Acu-Link.com,2013-09-09 09:45:00,
2013-09-09 06:00:00,34.7,34.2,30.10,NNE,22,2.2,-999.0,98,-99.99,,,0.00,Acu-Link.com,2013-09-09 10:00:00,
2013-09-09 06:16:00,35.4,35.1,30.11,NE,45,0.0,-999.0,99,-99.99,,,0.00,Acu-Link.com,2013-09-09 10:16:00,
2013-09-09 06:31:00,35.8,35.5,30.11,NNW,337,0.0,-999.0,99,-99.99,,,0.00,Acu-Link.com,2013-09-09 10:31:00,
2013-09-09 06:46:00,36.1,35.8,30.11,NW,315,0.0,-999.0,99,-99.99,,,0.00,Acu-Link.com,2013-09-09 10:46:00,
2013-09-09 07:01:00,36.7,36.4,30.12,West,270,0.0,-999.0,99,-99.99,,,0.00,Acu-Link.com,2013-09-09 11:01:00,
2013-09-09 07:16:00,37.6,37.1,30.13,West,270,0.0,-999.0,98,-99.99,,,0.00,Acu-Link.com,2013-09-09 11:16:00,
2013-09-09 07:32:00,40.5,40.0,30.14,ESE,112,0.0,-999.0,98,-99.99,,,0.00,Acu-Link.com,2013-09-09 11:32:00,
2013-09-09 07:47:00,42.6,40.2,30.13,WSW,247,0.0,-999.0,91,-99.99,,,0.00,Acu-Link.com,2013-09-09 11:47:00,
2013-09-09 08:02:00,41.7,39.0,30.12,WNW,292,0.0,-999.0,90,-99.99,,,0.00,Acu-Link.com,2013-09-09 12:02:00,
2013-09-09 08:17:00,43.9,39.7,30.12,SE,135,0.0,-999.0,85,-99.99,,,0.00,Acu-Link.com,2013-09-09 12:17:00,
2013-09-09 08:32:00,44.4,39.3,30.13,NE,45,0.0,-999.0,82,-99.99,,,0.00,Acu-Link.com,2013-09-09 12:32:00,
2013-09-09 08:48:00,45.1,39.6,30.13,West,270,0.0,-999.0,81,-99.99,,,0.00,Acu-Link.com,2013-09-09 12:48:00,
2013-09-09 09:03:00,45.9,38.4,30.13,West,270,2.2,-999.0,75,-99.99,,,0.00,Acu-Link.com,2013-09-09 13:03:00,
2013-09-09 09:18:00,46.6,38.1,30.13,West,270,2.2,-999.0,72,-99.99,,,0.00,Acu-Link.com,2013-09-09 13:18:00,
2013-09-09 09:33:00,48.0,39.1,30.12,West,270,6.3,-999.0,71,-99.99,,,0.00,Acu-Link.com,2013-09-09 13:33:00,
2013-09-09 09:49:00,49.1,39.7,30.12,WSW,247,4.7,-999.0,70,-99.99,,,0.00,Acu-Link.com,2013-09-09 13:49:00,
2013-09-09 10:04:00,50.0,39.5,30.11,WSW,247,3.7,-999.0,67,-99.99,,,0.00,Acu-Link.com,2013-09-09 14:04:00,
2013-09-09 10:19:00,50.9,39.6,30.10,SW,225,6.3,-999.0,65,-99.99,,,0.00,Acu-Link.com,2013-09-09 14:19:00,
2013-09-09 10:34:00,51.4,38.8,30.10,SSE,157,4.7,-999.0,62,-99.99,,,0.00,Acu-Link.com,2013-09-09 14:34:00,
2013-09-09 10:49:00,54.5,41.8,30.10,SSW,202,1.1,-999.0,62,-99.99,,,0.00,Acu-Link.com,2013-09-09 14:49:00,
2013-09-09 11:05:00,55.2,39.8,30.10,WSW,247,9.4,-999.0,56,-99.99,,,0.00,Acu-Link.com,2013-09-09 15:05:00,
2013-09-09 11:20:00,54.9,39.0,30.09,WSW,247,6.8,-999.0,55,-99.99,,,0.00,Acu-Link.com,2013-09-09 15:20:00,
2013-09-09 11:35:00,57.0,39.6,30.10,SW,225,9.4,-999.0,52,-99.99,,,0.00,Acu-Link.com,2013-09-09 15:35:00,
2013-09-09 11:50:00,57.0,38.0,30.10,WSW,247,4.7,-999.0,49,-99.99,,,0.00,Acu-Link.com,2013-09-09 15:50:00,
2013-09-09 12:05:00,57.9,39.4,30.08,West,270,6.3,-999.0,50,-99.99,,,0.00,Acu-Link.com,2013-09-09 16:05:00,
2013-09-09 12:21:00,59.0,40.9,30.08,West,270,5.8,-999.0,51,-99.99,,,0.00,Acu-Link.com,2013-09-09 16:21:00,
2013-09-09 12:36:00,58.3,39.2,30.07,WSW,247,9.4,-999.0,49,-99.99,,,0.00,Acu-Link.com,2013-09-09 16:36:00,
2013-09-09 12:51:00,58.8,40.2,30.07,SW,225,8.3,-999.0,50,-99.99,,,0.00,Acu-Link.com,2013-09-09 16:51:00,
2013-09-09 13:06:00,58.6,39.5,30.06,West,270,4.7,-999.0,49,-99.99,,,0.00,Acu-Link.com,2013-09-09 17:06:00,
2013-09-09 13:21:00,59.2,41.6,30.07,WSW,247,0.0,-999.0,52,-99.99,,,0.00,Acu-Link.com,2013-09-09 17:21:00,
2013-09-09 13:36:00,59.9,40.2,30.07,WSW,247,5.8,-999.0,48,-99.99,,,0.00,Acu-Link.com,2013-09-09 17:36:00,
2013-09-09 13:52:00,59.7,41.5,30.07,West,270,6.8,-999.0,51,-99.99,,,0.00,Acu-Link.com,2013-09-09 17:52:00,
2013-09-09 14:07:00,61.2,41.9,30.06,SW,225,2.7,-999.0,49,-99.99,,,0.00,Acu-Link.com,2013-09-09 18:07:00,
2013-09-09 14:22:00,61.5,42.2,30.06,NW,315,2.2,-999.0,49,-99.99,,,0.00,Acu-Link.com,2013-09-09 18:22:00,
2013-09-09 14:38:00,62.6,37.9,30.05,SSE,157,4.7,-999.0,40,-99.99,,,0.00,Acu-Link.com,2013-09-09 18:38:00,
2013-09-09 14:53:00,62.8,38.7,30.04,West,270,8.3,-999.0,41,-99.99,,,0.00,Acu-Link.com,2013-09-09 18:53:00,
2013-09-09 15:08:00,62.8,39.4,30.04,West,270,2.7,-999.0,42,-99.99,,,0.00,Acu-Link.com,2013-09-09 19:08:00,
2013-09-09 15:23:00,63.0,40.7,30.05,South,180,4.2,-999.0,44,-99.99,,,0.00,Acu-Link.com,2013-09-09 19:23:00,
2013-09-09 15:38:00,64.2,40.0,30.03,West,270,8.3,-999.0,41,-99.99,,,0.00,Acu-Link.com,2013-09-09 19:38:00,
2013-09-09 15:54:00,63.7,40.2,30.03,WSW,247,4.7,-999.0,42,-99.99,,,0.00,Acu-Link.com,2013-09-09 19:54:00,
2013-09-09 16:09:00,65.7,40.7,30.03,WSW,247,3.7,-999.0,40,-99.99,,,0.00,Acu-Link.com,2013-09-09 20:09:00,
2013-09-09 16:24:00,67.5,41.7,30.02,South,180,4.7,-999.0,39,-99.99,,,0.00,Acu-Link.com,2013-09-09 20:24:00,
2013-09-09 16:39:00,65.3,40.4,30.01,West,270,3.2,-999.0,40,-99.99,,,0.00,Acu-Link.com,2013-09-09 20:39:00,
2013-09-09 16:54:00,64.4,40.8,30.01,West,270,3.7,-999.0,42,-99.99,,,0.00,Acu-Link.com,2013-09-09 20:54:00,
2013-09-09 17:10:00,63.7,39.6,30.01,West,270,6.3,-999.0,41,-99.99,,,0.00,Acu-Link.com,2013-09-09 21:10:00,
2013-09-09 17:25:00,64.0,38.5,30.01,SSW,202,6.3,-999.0,39,-99.99,,,0.00,Acu-Link.com,2013-09-09 21:25:00,
2013-09-09 17:40:00,64.9,41.3,30.01,ESE,112,3.2,-999.0,42,-99.99,,,0.00,Acu-Link.com,2013-09-09 21:40:00,
2013-09-09 17:55:00,62.2,41.2,30.01,SW,225,3.7,-999.0,46,-99.99,,,0.00,Acu-Link.com,2013-09-09 21:55:00,
2013-09-09 18:11:00,61.3,41.4,30.00,SSW,202,1.1,-999.0,48,-99.99,,,0.00,Acu-Link.com,2013-09-09 22:11:00,
2013-09-09 18:26:00,60.4,43.7,30.01,NNW,337,0.0,-999.0,54,-99.99,,,0.00,Acu-Link.com,2013-09-09 22:26:00,
2013-09-09 18:41:00,58.8,44.9,30.01,NE,45,0.0,-999.0,60,-99.99,,,0.00,Acu-Link.com,2013-09-09 22:41:00,
2013-09-09 18:56:00,56.3,44.7,30.01,NNW,337,1.7,-999.0,65,-99.99,,,0.00,Acu-Link.com,2013-09-09 22:56:00,
2013-09-09 19:11:00,54.1,44.2,30.01,NE,45,0.0,-999.0,69,-99.99,,,0.00,Acu-Link.com,2013-09-09 23:11:00,
2013-09-09 19:27:00,52.7,43.6,30.02,East,90,0.0,-999.0,71,-99.99,,,0.00,Acu-Link.com,2013-09-09 23:27:00,
2013-09-09 19:42:00,51.6,43.2,30.03,ENE,67,2.2,-999.0,73,-99.99,,,0.00,Acu-Link.com,2013-09-09 23:42:00,
2013-09-09 19:57:00,50.9,42.9,30.04,North,0,0.0,-999.0,74,-99.99,,,0.00,Acu-Link.com,2013-09-09 23:57:00,
2013-09-09 20:12:00,49.5,42.6,30.03,NE,45,1.1,-999.0,77,-99.99,,,0.00,Acu-Link.com,2013-09-10 00:12:00,
2013-09-09 20:27:00,48.6,42.4,30.04,West,270,0.0,-999.0,79,-99.99,,,0.00,Acu-Link.com,2013-09-10 00:27:00,
2013-09-09 20:43:00,48.0,42.1,30.03,West,270,2.7,-999.0,80,-99.99,,,0.00,Acu-Link.com,2013-09-10 00:43:00,
2013-09-09 20:58:00,48.4,42.8,30.04,East,90,0.0,-999.0,81,-99.99,,,0.00,Acu-Link.com,2013-09-10 00:58:00,
2013-09-09 21:13:00,48.0,42.5,30.05,WNW,292,0.0,-999.0,81,-99.99,,,0.00,Acu-Link.com,2013-09-10 01:13:00,
2013-09-09 21:28:00,47.3,42.1,30.04,NE,45,0.0,-999.0,82,-99.99,,,0.00,Acu-Link.com,2013-09-10 01:28:00,
2013-09-09 21:43:00,46.8,41.9,30.04,West,270,1.7,-999.0,83,-99.99,,,0.00,Acu-Link.com,2013-09-10 01:43:00,
2013-09-09 21:59:00,46.6,41.7,30.03,West,270,0.0,-999.0,83,-99.99,,,0.00,Acu-Link.com,2013-09-10 01:59:00,
2013-09-09 22:14:00,46.8,42.5,30.04,NE,45,0.0,-999.0,85,-99.99,,,0.00,Acu-Link.com,2013-09-10 02:14:00,
2013-09-09 22:29:00,46.9,42.6,30.04,NE,45,0.0,-999.0,85,-99.99,,,0.00,Acu-Link.com,2013-09-10 02:29:00,
2013-09-09 22:44:00,47.3,43.3,30.03,NNE,22,0.0,-999.0,86,-99.99,,,0.00,Acu-Link.com,2013-09-10 02:44:00,
2013-09-09 22:59:00,47.1,43.1,30.03,WSW,247,0.0,-999.0,86,-99.99,,,0.00,Acu-Link.com,2013-09-10 02:59:00,
2013-09-09 23:15:00,47.1,43.1,30.03,ENE,67,0.0,-999.0,86,-99.99,,,0.00,Acu-Link.com,2013-09-10 03:15:00,
2013-09-09 23:30:00,47.1,43.1,30.02,NNE,22,0.0,-999.0,86,-99.99,,,0.00,Acu-Link.com,2013-09-10 03:30:00,
2013-09-09 23:45:00,46.6,42.6,30.04,NNE,22,2.7,-999.0,86,-99.99,,,0.00,Acu-Link.com,2013-09-10 03:45:00,